Probability
0 0 0 0 0 0 0 0 0 0 0 0 0 0 0 0 0 0 1 2 5 6 5 6 6 6 6 3 1 0 1 3 6 7 6 6 5 5 6 5 4 4 5 5
0 0 0 0 0 0 0 0 0 0 0 0 0 0 0 0 0 0 0 1 4 5 6 7 7 6 6 4 1 0 0 2 5 7 6 6 4 4 4 5 4 4 5 6
0 0 0 0 0 0 0 0 0 0 0 0 0 0 0 0 0 0 0 1 3 4 6 7 7 6 6 4 2 0 0 1 4 6 6 5 4 3 3 4 3 3 4 5
0 0 0 0 0 0 0 0 0 0 0 0 0 0 0 0 0 0 0 1 2 3 5 6 6 6 6 4 2 0 0 1 3 6 6 4 3 3 2 2 2 3 3 4
0 0 0 0 0 0 0 0 0 0 0 0 0 0 0 0 0 0 0 0 1 1 2 3 5 6 5 4 2 1 0 0 2 4 5 4 3 2 1 1 1 1 2 2
0 0 0 0 0 0 0 0 0 0 0 0 0 0 0 0 0 0 0 0 0 0 0 1 3 4 4 3 3 1 1 0 1 3 4 3 2 1 0 0 0 0 1 1
0 0 0 0 0 0 0 0 0 0 0 0 0 0 0 0 0 0 0 0 0 0 0 1 2 3 3 3 3 3 2 1 1 3 3 1 1 1 0 0 0 0 0 0
0 0 0 0 0 0 0 0 0 0 0 0 0 0 0 0 0 0 0 0 0 0 0 0 1 1 2 2 3 3 3 3 3 3 2 1 0 0 0 0 0 0 0 0
0 0 0 0 0 0 0 0 0 0 0 0 0 0 0 0 0 0 0 0 0 0 0 0 0 0 1 1 1 2 3 3 3 4 3 1 0 0 0 0 0 0 0 0
0 0 0 0 0 0 0 0 0 0 0 0 0 0 0 0 0 0 0 0 0 0 0 0 0 0 0 0 0 1 2 3 4 4 3 1 1 1 1 0 0 0 0 0
0 0 0 0 0 0 0 0 0 0 0 0 0 0 0 0 0 0 0 0 0 0 0 0 0 0 0 0 0 0 1 1 3 4 3 2 2 2 1 0 0 0 0 0
0 0 0 0 0 0 0 0 0 0 0 0 0 0 0 0 0 0 0 0 0 0 0 0 0 0 0 0 0 0 0 0 1 2 3 3 4 3 1 0 0 0 0 0
0 0 0 0 0 0 0 0 0 0 0 0 0 0 0 0 0 0 0 0 0 0 0 0 0 0 0 0 1 1 1 0 0 1 2 3 4 3 1 1 0 0 0 0
0 0 0 0 0 0 0 0 0 0 0 0 0 0 0 0 0 0 0 0 0 0 0 0 0 0 0 0 1 2 2 1 0 0 0 1 2 2 2 2 1 0 0 0
0 0 0 0 0 0 0 0 0 0 0 0 0 0 0 0 0 0 0 0 0 0 0 0 0 0 0 0 1 2 2 1 0 0 0 0 0 1 1 2 1 0 0 0
0 0 0 0 0 0 0 0 0 0 0 0 0 0 0 0 0 0 0 0 0 0 0 0 0 0 0 0 0 1 1 0 0 0 0 0 0 0 0 1 1 0 0 0
0 0 0 0 0 0 0 0 0 0 0 0 0 0 0 0 0 0 0 0 0 0 0 0 0 0 0 0 0 0 0 0 0 0 0 0 0 0 0 0 0 0 0 0
0 0 0 0 0 0 0 0 0 0 0 0 0 0 0 0 0 0 0 0 0 0 0 0 0 0 0 0 0 0 0 0 0 0 0 0 0 0 0 0 0 0 0 0
0 0 0 0 0 0 0 0 0 0 0 0 0 0 0 0 0 0 0 0 0 0 0 0 0 0 0 0 0 0 0 0 0 0 0 0 0 0 0 0 0 0 0 0
0 0 0 0 0 0 0 0 0 0 0 0 0 0 0 0 0 0 0 0 0 0 0 0 0 0 0 0 0 0 0 0 0 0 0 0 0 0 0 0 0 0 0 0
0 0 0 0 0 0 0 0 0 0 0 0 0 0 0 0 0 0 0 0 0 0 0 0 0 0 0 0 0 0 0 0 0 0 0 0 0 0 0 0 0 0 0 0
0 0 0 0 0 0 0 0 0 0 0 0 0 0 0 0 0 0 0 0 0 0 0 0 0 0 0 0 0 0 0 0 0 0 0 0 0 0 0 0 0 0 0 0
0 0 0 0 0 0 0 0 0 0 0 0 0 0 0 0 0 0 0 0 0 0 0 0 0 0 0 0 0 0 0 0 0 0 0 0 0 0 0 0 0 0 0 0
0 0 0 0 0 0 0 0 0 0 0 0 0 0 0 0 0 0 0 0 0 0 0 0 0 0 0 0 0 0 0 0 0 0 0 0 0 0 0 0 0 0 0 0
0 0 0 0 0 0 0 0 0 0 0 0 0 0 0 0 0 0 0 0 0 0 0 0 0 0 0 0 0 0 0 0 0 0 0 0 0 0 0 0 0 0 0 0
0 0 0 0 0 0 0 0 0 0 0 0 0 0 0 0 0 0 0 0 0 0 0 0 0 0 0 0 0 0 0 0 0 0 0 0 0 0 0 0 0 0 0 0
Wind_Speed
4 5 2 1 1 2 2 3 6 5 3 3 7 11 10 4 2 3 3 2 3 4 3 3 3 3 4 4 4 4 4 3 2 1 1 1 1 1 1 1 1 1 1 0
5 2 2 1 0 0 1 4 6 5 3 4 5 10 6 3 2 2 3 3 4 4 4 3 4 3 3 4 4 4 4 4 2 1 2 2 2 1 1 1 2 1 1 1
2 1 1 1 1 2 3 4 4 6 6 3 4 8 3 2 1 2 2 3 3 3 4 4 4 4 3 4 4 4 5 4 3 2 1 1 1 1 1 2 2 2 1 1
1 2 2 2 2 1 5 3 4 5 4 4 1 6 6 3 4 4 4 4 4 4 4 3 4 4 4 4 4 4 4 4 3 2 0 0 0 1 2 2 2 2 2 1
2 2 2 2 3 1 4 4 3 4 3 4 2 4 8 2 4 5 5 4 4 4 4 4 4 4 4 4 4 4 4 4 3 2 1 1 1 1 1 1 2 2 2 1
2 1 0 1 2 1 3 2 1 1 1 4 4 4 8 3 5 5 5 5 5 5 4 4 4 4 4 4 4 4 4 4 3 2 1 1 1 1 1 2 2 2 2 1
5 1 1 1 2 3 4 3 4 5 2 5 1 3 9 5 4 4 5 5 5 5 4 4 5 4 5 5 5 4 4 5 4 2 2 2 2 2 2 3 2 2 2 2
3 5 1 1 0 1 1 2 3 3 5 5 2 6 7 3 3 3 4 4 5 4 4 4 5 4 4 5 5 4 5 5 4 3 3 2 2 2 2 2 2 2 2 3
1 5 2 2 1 2 1 1 1 2 2 4 6 7 8 3 5 5 5 5 6 6 5 5 5 4 4 4 5 5 5 4 4 4 3 3 2 3 3 2 2 2 2 2
3 4 3 2 2 3 1 3 3 2 2 6 6 5 5 7 7 6 6 6 7 7 7 6 5 5 5 4 5 5 4 4 4 3 3 3 3 3 3 2 3 3 2 2
2 2 4 2 1 2 2 1 2 1 2 3 5 7 4 4 3 4 6 7 7 7 7 6 5 5 5 5 5 5 5 5 5 4 3 3 3 3 3 2 2 3 3 3
2 3 3 5 1 0 3 3 4 2 3 3 3 9 3 2 2 3 5 7 7 7 7 6 5 5 5 5 6 5 5 5 5 5 4 4 4 4 3 3 3 3 3 3
4 3 3 5 2 2 1 1 2 2 2 3 4 9 2 3 4 5 5 7 7 7 7 7 6 6 6 5 5 6 6 6 5 5 4 4 4 4 4 4 4 3 3 3
5 3 5 7 5 2 3 3 3 4 4 5 9 11 9 8 7 7 7 6 6 6 7 7 7 6 6 6 5 6 6 6 6 5 4 4 4 4 4 4 4 3 3 3
4 3 5 7 6 4 6 7 6 8 8 9 9 8 11 8 6 6 6 6 7 8 8 8 8 7 7 7 6 6 6 6 6 6 5 4 5 4 5 5 4 4 4 4
2 2 1 4 4 5 8 9 9 10 8 9 9 12 9 6 4 5 5 6 7 8 9 8 8 8 8 8 8 7 7 7 6 6 5 5 5 5 5 5 5 4 4 3
2 3 0 4 4 4 8 8 8 6 6 7 10 10 6 6 6 6 6 6 6 7 8 8 8 8 8 8 7 7 7 6 6 6 6 6 5 5 5 6 5 4 4 4
5 4 2 3 4 7 7 2 4 5 6 7 8 7 6 7 7 6 5 5 6 7 8 8 8 8 8 7 7 6 6 5 5 6 6 6 6 6 6 6 6 5 4 4
4 5 2 1 3 10 7 2 4 4 7 6 8 8 6 5 5 5 3 3 5 6 7 7 7 7 7 7 6 6 5 5 5 6 6 6 6 6 6 6 6 5 4 4
3 2 3 3 3 8 6 1 2 2 6 3 4 5 4 3 4 6 4 5 6 6 6 6 7 6 6 6 6 5 6 5 6 6 7 6 6 6 6 6 6 5 4 4
2 2 4 5 6 11 5 1 3 3 6 2 3 4 3 4 6 7 7 6 6 6 7 6 6 6 6 6 5 5 6 6 6 7 6 6 6 6 6 5 5 5 5 4
7 6 5 5 6 11 3 5 6 7 2 2 3 3 4 6 6 6 7 7 7 7 7 6 6 6 6 5 5 6 6 7 6 6 6 6 6 5 5 5 5 4 4 4
7 8 6 9 9 4 5 6 5 2 3 3 3 4 4 5 6 7 6 6 7 7 6 6 6 7 7 5 4 6 7 6 6 6 6 6 6 5 5 4 5 4 3 3
4 2 3 6 9 6 6 5 4 3 4 4 4 4 4 5 6 7 6 6 6 6 6 5 6 6 7 6 6 6 7 6 5 6 6 5 5 5 4 4 4 3 3 3
5 5 4 7 7 7 6 6 5 4 3 4 4 4 5 5 6 6 6 6 6 6 6 5 5 7 8 7 6 6 6 5 5 5 5 5 4 4 4 4 3 4 3 4
6 7 7 8 6 5 7 5 3 3 4 5 4 5 4 5 6 6 6 5 5 6 5 6 6 7 7 6 7 7 6 5 5 5 4 4 3 3 3 4 4 6 6 8
Wind_Direction
23 59 39 286 226 232 237 251 271 275 284 266 251 269 282 281 272 278 284 271 276 280 297 316 324 332 341 343 340 335 336 325 341 321 307 296 291 297 318 332 331 320 323 305
40 22 279 248 1 354 243 270 281 293 316 287 277 276 281 271 243 247 263 269 275 297 313 319 327 338 336 329 329 332 329 319 315 288 270 258 263 275 279 332 339 326 322 311
116 295 347 82 25 340 275 237 267 289 315 301 306 291 287 309 346 324 299 279 280 275 282 297 313 318 323 323 322 320 317 313 316 326 329 341 339 322 332 343 332 320 296 281
25 323 4 15 332 323 285 271 277 290 310 297 12 294 291 303 314 312 304 295 290 295 289 292 302 312 310 309 314 316 313 312 317 340 11 51 297 289 296 294 299 309 286 264
308 345 0 322 309 275 259 304 280 271 246 289 277 245 285 338 296 292 287 285 293 299 290 289 297 298 305 312 316 317 315 314 319 329 295 211 251 270 294 300 304 307 310 291
273 312 16 298 329 298 299 329 331 49 81 276 240 209 282 260 253 282 291 304 308 310 310 306 308 312 317 322 324 327 324 318 320 321 319 266 255 278 296 303 288 298 305 291
332 323 5 13 350 1 21 37 1 346 336 259 196 218 255 267 271 277 290 302 310 311 309 313 316 319 322 324 328 327 321 318 319 321 320 299 264 237 237 252 264 286 287 283
335 304 318 9 62 280 332 125 156 257 269 292 294 242 255 277 314 318 314 313 317 320 314 310 309 310 310 316 322 318 311 312 314 317 317 312 305 268 248 250 252 254 258 269
234 277 346 4 3 114 100 141 155 155 293 285 275 285 296 330 337 339 336 338 329 323 315 310 316 318 319 321 321 311 307 313 314 317 317 319 319 314 290 271 263 260 272 281
170 274 298 326 35 34 70 140 96 126 278 281 288 278 277 315 325 335 335 331 327 327 325 321 322 320 323 324 319 322 320 313 314 320 321 322 314 304 298 292 289 280 280 277
122 207 303 346 197 209 89 93 114 154 196 226 281 276 246 261 296 312 314 319 321 323 321 317 317 322 326 329 327 331 334 328 325 326 324 327 323 318 310 299 291 292 296 286
138 131 272 264 258 143 160 176 151 176 251 219 245 273 287 260 300 310 312 320 326 325 323 324 327 334 335 334 335 336 334 328 326 326 323 325 327 328 322 314 302 298 287 286
134 117 334 336 344 9 284 210 179 155 164 201 218 264 318 347 332 329 324 322 326 328 331 336 341 340 336 334 333 330 332 329 328 328 328 331 331 326 320 309 306 302 295 289
126 153 188 223 246 211 248 240 190 166 202 231 232 258 292 310 316 318 320 321 321 325 332 338 338 336 334 332 330 330 332 333 333 331 330 329 326 321 316 311 307 300 292 288
128 208 231 253 267 257 249 250 215 210 217 227 249 256 276 292 294 298 307 318 328 331 335 336 333 331 332 332 330 329 328 330 330 331 329 325 326 326 321 315 311 302 297 293
134 201 256 279 263 264 271 260 237 235 237 243 266 274 272 289 303 304 308 315 320 321 324 326 327 328 328 326 323 322 322 322 326 327 325 322 328 327 323 319 312 303 299 296
167 154 215 278 311 324 275 243 212 213 216 208 237 253 290 304 302 298 297 304 305 311 315 319 320 316 314 314 314 311 313 319 324 326 328 327 326 323 322 320 317 306 299 297
158 152 183 289 3 260 249 196 191 215 247 227 242 265 280 277 287 284 278 281 295 309 314 314 314 313 313 312 313 309 313 316 318 321 322 324 327 323 322 321 320 316 305 296
158 158 171 205 266 277 287 228 179 201 271 233 235 261 282 305 310 294 282 276 284 294 297 299 301 303 307 310 314 314 314 316 318 317 316 317 319 319 319 317 314 312 311 304
82 127 158 173 227 255 261 229 159 109 285 252 214 254 279 324 309 291 307 304 300 302 303 304 306 308 309 311 315 317 315 316 312 310 309 310 310 311 312 308 308 309 307 302
132 151 193 207 235 264 258 185 133 186 259 262 225 252 246 240 251 283 305 305 302 302 303 306 307 309 308 312 316 313 312 308 307 310 310 313 312 308 304 302 306 309 308 308
182 179 197 183 218 256 198 144 193 227 269 263 262 256 251 264 282 296 302 304 307 309 311 312 312 311 312 316 317 312 307 307 311 311 311 313 313 309 311 310 314 316 317 315
203 196 194 200 221 253 183 209 231 222 252 258 261 271 265 278 286 296 298 299 301 303 307 311 308 309 312 313 310 304 306 313 315 313 311 311 312 312 315 313 315 319 321 317
246 203 209 253 262 262 253 257 262 244 253 268 270 276 268 275 284 292 295 300 302 302 304 308 310 309 311 313 312 304 308 313 315 314 314 314 314 318 323 318 309 309 312 310
222 182 217 256 275 295 268 238 248 266 273 280 287 278 270 274 284 287 292 295 298 303 306 306 302 301 304 313 314 314 317 318 318 315 316 318 318 317 317 315 308 308 294 301
195 190 198 237 239 239 269 267 249 252 269 273 282 290 286 271 277 286 287 290 295 300 306 309 309 307 309 314 315 317 318 316 314 319 322 320 317 314 311 311 317 319 316 318